TimeCDT,TemperatureF,Dew PointF,Humidity,Sea Level PressureIn,VisibilityMPH,Wind Direction,Wind SpeedMPH,Gust SpeedMPH,PrecipitationIn,Events,Conditions,WindDirDegrees,DateUTC
12:53 AM,24.1,9.0,53,30.05,10.0,NNW,6.9,-,N/A,,Overcast,330,2013-04-01 05:53:00
1:53 AM,23.0,10.0,58,30.07,10.0,Variable,6.9,-,0.00,,Overcast,0,2013-04-01 06:53:00
2:53 AM,23.0,5.0,46,30.07,10.0,Variable,4.6,-,0.00,,Overcast,0,2013-04-01 07:53:00
3:53 AM,21.9,6.1,51,30.08,10.0,Variable,4.6,-,N/A,,Mostly Cloudy,0,2013-04-01 08:53:00
4:53 AM,21.0,9.0,60,30.10,10.0,Variable,3.5,-,N/A,,Scattered Clouds,0,2013-04-01 09:53:00
5:53 AM,19.0,7.0,59,30.12,10.0,Variable,3.5,-,N/A,,Clear,0,2013-04-01 10:53:00
6:53 AM,17.1,7.0,65,30.15,10.0,Variable,5.8,-,N/A,,Clear,0,2013-04-01 11:53:00
7:53 AM,18.0,7.0,62,30.18,10.0,Variable,5.8,-,N/A,,Clear,0,2013-04-01 12:53:00
8:53 AM,19.0,7.0,59,30.19,10.0,Variable,5.8,-,N/A,,Clear,0,2013-04-01 13:53:00
9:53 AM,21.9,7.0,53,30.19,10.0,Variable,6.9,-,N/A,,Clear,0,2013-04-01 14:53:00
10:53 AM,24.1,7.0,48,30.19,10.0,NW,8.1,-,N/A,,Clear,310,2013-04-01 15:53:00
12:53 PM,28.0,3.9,36,30.18,10.0,NNW,8.1,18.4,N/A,,Clear,340,2013-04-01 17:53:00
1:53 PM,30.0,3.9,33,30.17,10.0,WNW,8.1,17.3,N/A,,Clear,290,2013-04-01 18:53:00
3:53 PM,32.0,3.9,31,30.16,10.0,West,10.4,17.3,N/A,,Clear,280,2013-04-01 20:53:00
4:53 PM,32.0,3.0,29,30.16,10.0,WNW,9.2,23.0,N/A,,Clear,300,2013-04-01 21:53:00
5:53 PM,32.0,3.0,29,30.17,10.0,Variable,6.9,17.3,N/A,,Clear,0,2013-04-01 22:53:00
6:53 PM,30.9,3.0,31,30.17,10.0,Variable,5.8,-,N/A,,Clear,0,2013-04-01 23:53:00
7:53 PM,28.9,3.9,35,30.17,10.0,WNW,3.5,-,N/A,,Clear,290,2013-04-02 00:53:00
8:53 PM,28.0,5.0,38,30.19,10.0,WNW,4.6,-,N/A,,Clear,290,2013-04-02 01:53:00
9:53 PM,27.0,6.1,41,30.20,10.0,West,3.5,-,N/A,,Clear,280,2013-04-02 02:53:00
10:53 PM,27.0,6.1,41,30.20,10.0,Calm,Calm,-,N/A,,Clear,0,2013-04-02 03:53:00
11:53 PM,25.0,7.0,46,30.21,10.0,Variable,4.6,-,N/A,,Clear,0,2013-04-02 04:53:00